Weather in Isayevskoye

Russia / Ivanovo Oblast     57°00′51″N   39°41′52″E
temp.,
°C
wind,
m/s
gust,
m/s
humid.,
%
clouds,
%
prec.,
mm/h
press.,
hPa
HPBL,
m
3 march, wed
wed300:00−5nnw6138867 0.3 1008400
03:00−8nw5129133 0.3 1011333
06:00−8nw5139470 0.0 1012366
09:00−8wnw5129278 0.0 1012397
12:00−3wnw7109157 0.0 1011692
15:00−1wnw6108978 0.1 10101025
18:00−1w61292100 0.1 1008704
21:00−1w61292100 0.3 1006783
4 march, thu
thu400:00−2wsw71393100 0.1 1002661
03:00−1wsw61396100 0.3 999588
06:00+1w91598100 1.2 995897
09:00−1wnw8148296 1.8 9961038
12:00−3wnw912879 0.0 997867
15:00−3wnw798555 0.1 999912
18:00−5wnw4891100 0.1 999176
21:00−8nw349593 0.1 100176
5 march, fri
fri500:00−11nnw339630 0.0 100226
03:00−13nnw239515 0.0 100321
06:00−14nw22960 0.0 100420
09:00−11w239542 0.0 100597
12:00−6wsw238869 0.0 1006335
15:00−4w239384 0.5 1007364
18:00−8wnw349193 0.5 100885
21:00−9nw239585 0.6 101044
6 march, sat
sat600:00−13nw479584 0.1 1012100
03:00−15nw349683 0.1 101456
06:00−18nw349955 0.0 101561
09:00−17nw369541 0.0 1016176
12:00−12nw369165 0.1 1016494
15:00−10wnw468482 0.1 1015812
18:00−11w3493100 0.1 101465
21:00−13wsw349684 0.1 101371
7 march, sun
sun700:00−14ssw479355 0.0 1010116
03:00−12ssw6139271 0.0 1006351
06:00−9ssw81591100 0.3 1000730
09:00−6ssw91493100 1.3 9941025
12:00−3sw91393100 1.7 9921053
15:00−6wnw61069100 2.7 991991
18:00−12s127550 0.0 99221
21:00−10ssw369576 0.1 993139